This is the latest recevied weather packets stored in our database for station/object N7MLR. If no packets are shown the sender has not sent any weather packets the latest 10 day(s).
| Time | Temp. | Humidity | Pressure | Rain* | Wind** | Luminosity | Snow |
|---|---|---|---|---|---|---|---|
| 1777482899 | 24.44° C | 95% | 1012 hPa | 0 mm | - | 92 W/m² | - |
| 1777482595 | 25° C | 95% | 1012.1 hPa | 0 mm | - | 94 W/m² | - |
| 1777482292 | 24.44° C | 95% | 1012.3 hPa | 0 mm | - | 86 W/m² | - |
| 1777481989 | 24.44° C | 95% | 1012.6 hPa | 0 mm | - | 79 W/m² | - |
| 1777481687 | 24.44° C | 96% | 1012.6 hPa | 0 mm | - | 88 W/m² | - |
| 1777481384 | 24.44° C | 96% | 1012.5 hPa | 0 mm | - | 89 W/m² | - |
| 1777481080 | 24.44° C | 96% | 1012.6 hPa | 0 mm | - | 86 W/m² | - |
| 1777480777 | 24.44° C | 96% | 1012.6 hPa | 0 mm | - | 85 W/m² | - |
| 1777480474 | 24.44° C | 97% | 1012.5 hPa | 0 mm | - | 47 W/m² | - |
| 1777480169 | 24.44° C | 97% | 1012.6 hPa | 0 mm | - | 74 W/m² | - |
| 1777479866 | 24.44° C | 97% | 1012.6 hPa | 0 mm | - | 81 W/m² | - |
| 1777479563 | 24.44° C | 97% | 1012.5 hPa | 0 mm | - | 55 W/m² | - |
| 1777479261 | 24.44° C | 97% | 1012.7 hPa | 0 mm | - | 91 W/m² | - |
| 1777478958 | 24.44° C | 96% | 1012.6 hPa | 0 mm | - | 57 W/m² | - |
| 1777478654 | 24.44° C | 96% | 1012.5 hPa | 0 mm | - | 59 W/m² | - |
| 1777478351 | 24.44° C | 96% | 1012.7 hPa | 0 mm | - | 68 W/m² | - |
| 1777478048 | 24.44° C | 96% | 1012.8 hPa | 0 mm | - | 62 W/m² | - |
| 1777477743 | 24.44° C | 96% | 1012.9 hPa | 0 mm | - | 52 W/m² | - |
| 1777477439 | 24.44° C | 96% | 1012.9 hPa | 0 mm | - | 55 W/m² | - |
| 1777477136 | 24.44° C | 95% | 1012.8 hPa | 0 mm | - | 42 W/m² | - |
| 1777476833 | 24.44° C | 95% | 1012.5 hPa | 0 mm | - | 40 W/m² | - |
| 1777476530 | 24.44° C | 95% | 1012.8 hPa | 0 mm | - | 42 W/m² | - |
| 1777476226 | 24.44° C | 95% | 1012.8 hPa | 0 mm | - | 55 W/m² | - |
| 1777475922 | 25° C | 94% | 1012.6 hPa | 0 mm | - | 53 W/m² | - |
| 1777475618 | 25° C | 94% | 1012.8 hPa | 0 mm | - | 50 W/m² | - |
* Rain latest hour (hover to see other rain measurements)
** Current wind speed in m/s (hover to see current wind gust speed)